Wind_Speed
64 64 64 65 65 65 65 65 65 65 65 65 65 66 67 67 68 69 70 71 72 73 73 74 75 76 77 79 80 82 83 85 86 88 89 91 92 94 95 96 98 98 99 99 99 99 98 97 96 95 93 91 89 86 84 81 78 75 72 69 66 63 60 58 56 55 53 53 53 53 52 52 52 52 51 51 50 50 50 51 51 51 51 51 51 51
65 65 65 65 65 65 65 65 65 65 66 66 66 67 68 68 69 70 71 72 73 74 75 76 77 78 79 81 82 84 86 87 89 90 92 93 95 96 97 98 99 99 99 99 98 97 95 94 92 90 87 85 82 80 77 74 71 68 65 62 59 57 55 54 53 52 52 52 52 52 52 51 51 50 50 49 49 49 50 50 50 50 50 50 50 49
65 66 66 66 66 66 66 66 66 66 67 67 68 68 69 70 71 71 72 73 74 75 76 77 78 80 82 83 85 87 88 90 91 93 94 96 97 98 98 99 99 98 97 96 94 93 91 89 87 84 82 79 76 73 70 67 64 62 59 57 56 54 53 53 52 52 52 52 52 51 51 50 50 49 49 49 49 49 49 50 50 49 49 48 48 47
66 66 66 66 66 66 66 66 67 67 68 68 69 70 70 71 72 73 73 74 75 76 78 79 80 82 84 86 87 89 91 92 94 95 97 97 98 98 98 98 97 95 94 92 90 88 86 83 81 78 75 72 69 67 64 62 60 58 57 55 55 54 53 53 53 53 53 52 52 51 50 50 49 48 48 48 48 49 49 49 49 48 47 47 46 45
67 67 67 66 66 66 67 67 68 68 69 70 70 71 72 72 73 74 74 75 77 78 80 81 83 84 86 88 90 92 93 95 96 97 97 98 98 97 96 95 93 91 89 87 85 82 80 77 74 72 69 66 64 62 60 59 58 57 56 56 55 55 54 54 54 54 53 53 52 51 50 49 48 48 48 47 48 48 48 48 47 47 46 45 45 44
67 67 67 67 67 67 68 68 69 70 70 71 72 72 73 73 74 75 76 77 78 80 82 83 85 87 89 91 92 94 95 96 97 97 97 96 96 94 93 91 89 86 84 81 79 76 73 71 68 66 64 62 61 60 59 58 57 57 57 56 56 56 55 55 55 55 54 53 52 50 49 48 47 47 47 47 47 47 47 47 46 45 45 44 43 43
68 67 68 68 68 68 69 69 70 71 72 72 73 73 74 75 75 76 77 79 80 82 84 85 87 89 91 93 95 96 96 97 96 96 95 94 92 91 88 86 83 81 78 75 73 70 68 66 64 62 61 60 59 58 58 57 57 57 57 57 57 56 56 56 56 55 54 53 52 50 49 48 47 46 46 46 46 46 46 46 45 44 44 43 43 42
68 68 68 68 69 69 70 71 71 72 73 73 74 74 75 76 77 78 79 81 83 84 86 88 90 92 93 95 96 96 96 96 95 93 92 90 88 86 83 80 78 75 72 69 67 65 63 62 60 59 59 58 57 57 57 57 56 56 56 56 56 56 56 56 55 55 54 53 52 50 49 48 47 46 45 45 45 45 45 45 44 44 43 43 42 42
68 68 69 69 69 70 71 72 72 73 74 74 75 76 76 77 78 79 81 83 85 86 88 90 92 93 95 96 96 95 94 93 91 89 87 85 83 80 77 74 71 68 66 64 62 61 60 59 58 57 57 56 56 55 55 55 55 55 55 55 55 55 55 55 54 54 53 52 51 50 49 48 47 46 45 45 44 44 44 44 43 43 43 43 42 42
68 69 69 70 70 71 72 73 73 74 74 75 76 77 78 79 80 81 83 85 86 89 90 92 93 94 95 95 95 93 91 89 87 85 82 79 76 74 71 68 65 62 61 59 58 58 57 56 56 55 55 54 54 54 54 53 54 53 54 54 54 54 53 53 53 53 52 51 51 50 49 48 47 46 45 45 44 44 43 43 43 42 42 42 42 42
69 69 70 71 72 72 73 73 74 75 75 76 78 79 80 81 82 83 85 87 89 90 92 93 94 93 93 92 91 89 86 84 82 80 76 73 70 67 64 62 59 58 57 56 56 55 55 55 54 54 53 53 53 53 53 52 52 52 52 52 52 52 52 52 51 51 51 50 50 49 49 48 48 47 46 45 44 44 43 42 42 42 42 42 42 42
70 70 71 72 72 73 74 74 75 76 77 78 79 80 82 83 84 86 87 89 90 92 93 93 93 92 90 88 86 84 82 79 76 73 70 67 64 61 58 57 55 54 54 54 54 54 54 53 53 53 52 52 52 52 52 52 52 51 51 51 51 51 51 51 50 50 50 49 49 49 48 48 48 48 47 46 45 44 43 42 42 42 42 42 42 41
71 71 72 73 73 74 75 75 76 77 78 79 80 82 84 85 87 88 89 91 92 92 92 92 91 90 87 84 81 78 76 73 70 67 63 60 58 55 53 53 52 52 51 52 52 52 52 52 52 52 52 52 52 52 52 51 51 51 51 51 51 51 50 50 50 49 49 48 48 48 48 48 48 48 48 47 46 45 43 42 42 41 41 41 41 41
72 72 73 73 74 75 76 77 78 79 80 81 83 84 85 87 89 90 91 92 93 92 91 89 87 85 82 79 76 73 70 68 65 61 58 55 53 51 50 49 49 50 49 49 50 51 51 51 51 51 52 52 52 52 52 51 51 51 51 51 50 50 50 50 49 49 48 48 47 47 47 47 48 48 48 48 47 46 44 43 42 41 41 41 41 41
73 73 74 74 75 76 77 78 79 81 82 83 85 86 88 89 91 92 92 92 92 91 89 86 83 80 76 72 69 67 65 63 60 55 52 50 49 49 48 47 47 48 48 48 49 50 50 50 50 51 51 51 52 52 52 52 51 51 51 51 50 50 50 49 49 48 48 47 47 46 46 47 47 48 48 48 48 47 45 44 42 42 41 41 41 41
74 74 75 75 76 77 79 80 81 82 84 85 87 88 90 91 92 92 92 91 89 87 84 80 77 73 71 68 64 61 58 57 55 51 47 46 46 47 46 46 46 47 47 47 48 49 49 50 50 50 51 51 52 52 52 52 52 51 51 51 50 50 49 49 48 48 47 46 46 45 45 45 46 47 47 48 48 47 46 44 43 42 42 41 41 41
74 75 76 77 78 79 80 82 83 85 86 88 89 90 91 92 92 92 90 88 86 83 79 75 70 65 63 62 60 57 53 51 49 47 44 43 44 45 46 45 45 46 46 47 47 48 49 49 50 50 51 51 52 52 52 52 52 52 51 51 51 50 50 49 48 47 46 45 44 44 44 44 44 45 46 47 47 47 46 45 44 43 42 42 41 41
76 76 77 78 79 81 82 84 85 87 88 90 91 92 92 92 91 90 87 84 81 77 73 69 64 60 56 53 54 54 50 47 45 44 42 42 43 44 45 45 45 45 46 46 47 48 48 49 49 50 51 52 52 53 53 53 53 52 52 51 51 50 50 49 48 47 46 44 43 43 42 42 43 43 44 45 46 46 45 45 44 44 43 43 42 42
77 78 79 80 81 83 84 86 87 89 90 91 92 92 92 91 89 86 82 79 75 70 66 62 58 55 51 48 48 49 46 44 43 42 41 41 42 44 45 45 45 45 45 46 46 47 48 48 49 50 51 51 52 53 53 53 53 53 52 52 51 51 50 49 48 46 45 44 43 42 41 41 41 42 43 43 44 44 44 44 44 44 43 43 43 42
78 79 81 82 83 85 86 88 89 91 92 92 92 91 90 88 85 81 76 72 68 64 60 55 52 49 46 45 45 45 44 43 42 42 41 41 42 43 44 44 44 45 45 45 46 47 47 48 49 49 50 51 52 53 53 53 53 53 53 52 52 51 50 49 48 47 45 43 42 41 40 40 40 41 41 42 43 43 43 43 43 43 43 43 43 43
80 81 83 84 85 87 88 90 91 92 93 92 91 90 87 83 79 74 70 65 61 57 54 49 46 44 43 42 43 43 44 43 42 42 42 41 42 43 44 44 44 45 45 46 46 47 47 48 48 49 50 51 52 53 53 53 53 53 53 53 52 52 51 50 49 47 45 43 42 41 40 40 39 40 40 41 41 42 42 42 42 42 43 43 43 43
82 83 85 86 88 89 90 91 92 93 92 91 88 85 82 77 72 68 63 59 54 51 47 44 42 41 41 41 42 43 44 44 43 43 42 42 42 43 44 44 45 45 45 46 46 47 47 48 48 49 50 51 52 52 53 53 53 53 53 53 53 52 52 51 50 48 46 44 42 40 39 39 39 39 39 40 40 41 41 41 41 41 42 42 43 43
84 85 87 88 90 91 92 92 92 92 90 87 84 80 76 70 65 60 56 52 48 45 42 40 39 39 40 40 42 43 45 45 44 44 43 43 43 43 44 45 45 45 45 46 46 47 47 48 48 49 50 51 51 52 52 53 53 53 53 53 53 53 52 52 50 48 46 44 42 40 39 38 38 38 39 39 39 40 40 40 40 40 40 41 42 43
86 87 89 90 91 92 92 92 90 89 86 82 78 74 69 63 58 53 49 46 43 40 38 37 38 39 40 41 42 44 45 46 45 45 44 43 43 44 45 45 46 46 46 46 47 47 47 48 48 49 50 51 51 52 52 52 52 53 53 53 53 53 53 52 51 49 47 44 42 40 39 38 37 37 38 38 38 39 39 39 39 39 39 40 41 42
88 89 91 92 93 92 91 89 87 84 80 76 72 67 61 56 51 47 44 41 39 37 37 37 38 39 40 42 43 45 46 46 46 46 45 45 44 45 45 46 47 47 47 47 47 48 48 48 49 49 50 51 51 51 51 52 52 52 52 53 53 53 52 52 51 49 47 45 42 40 39 38 37 37 37 37 38 38 38 38 38 38 39 39 40 40
90 91 92 93 92 91 88 86 82 78 74 69 64 59 53 49 45 42 39 38 37 37 37 38 39 40 41 42 43 44 46 47 47 47 46 46 46 46 47 47 48 48 48 48 48 48 49 49 49 50 50 50 51 51 51 51 51 51 52 52 52 52 52 51 50 49 47 45 42 40 39 37 36 36 36 36 37 37 38 38 38 38 38 38 38 39
92 93 93 92 90 87 84 80 76 71 67 61 56 51 46 42 39 37 37 36 36 37 37 38 39 40 41 42 43 44 46 47 48 48 48 47 47 48 48 49 49 50 50 49 49 49 49 50 50 50 50 50 50 50 50 50 50 50 51 51 51 51 51 50 50 48 46 44 42 40 39 37 36 35 35 35 36 37 37 38 38 38 37 37 37 38
93 93 91 89 86 83 79 74 69 64 59 54 49 44 40 37 35 35 35 36 37 37 38 39 40 41 42 42 43 44 46 48 49 49 49 49 49 49 50 51 51 51 51 51 50 50 50 50 50 50 50 50 49 49 49 49 49 49 49 50 50 50 50 49 48 47 45 43 41 40 38 37 35 35 34 34 35 36 36 37 37 37 37 37 36 36
92 91 88 85 81 77 72 67 61 56 51 46 42 38 36 34 34 34 35 36 37 38 39 40 41 42 42 43 44 45 47 49 51 51 51 51 51 51 52 52 53 53 53 52 52 51 50 50 51 51 50 49 48 48 47 47 47 48 48 48 48 48 48 48 47 46 44 42 41 39 38 37 35 34 34 34 34 35 36 36 37 37 37 36 36 35
89 86 83 79 75 69 64 58 53 48 43 39 36 35 34 33 34 34 36 37 38 39 40 41 42 43 44 44 45 46 48 51 52 53 53 53 53 53 53 54 54 55 55 54 54 52 51 50 50 50 50 49 47 46 46 45 46 46 46 46 46 46 46 46 45 44 43 41 40 39 38 36 35 34 34 33 33 34 35 36 36 36 36 35 35 34
84 80 76 72 67 62 56 50 45 41 37 35 33 33 33 34 34 35 37 38 39 40 41 42 43 44 45 46 47 48 50 52 54 55 55 55 55 55 55 55 56 56 56 56 55 54 52 51 50 49 49 47 46 45 44 44 44 44 44 44 44 44 45 44 44 42 41 40 39 38 37 36 35 34 34 33 33 33 34 34 35 36 35 35 34 34
78 73 69 63 58 53 47 42 38 35 33 32 32 33 34 34 36 37 38 39 41 42 43 44 45 46 47 48 49 50 52 54 56 57 57 57 57 57 57 57 57 57 57 57 57 56 54 52 50 48 47 45 44 42 42 41 42 42 42 42 42 42 43 42 42 41 40 39 38 37 37 36 35 34 33 33 32 32 32 33 34 34 34 34 33 33
70 65 60 55 49 44 40 36 33 32 32 32 32 33 34 35 37 38 40 41 42 43 44 45 46 47 49 50 51 53 54 56 58 58 59 59 59 59 58 58 58 58 58 58 58 57 56 54 51 48 45 42 41 40 39 39 39 39 40 40 40 40 40 40 40 39 38 37 37 37 36 36 35 34 33 33 32 31 31 32 32 33 33 33 32 32
62 57 51 46 41 37 34 32 31 31 31 32 33 34 35 37 38 40 41 42 43 44 45 47 48 49 51 52 53 55 56 58 59 60 61 61 61 60 60 60 60 59 59 58 58 57 55 53 50 47 43 40 38 37 37 37 37 37 37 38 38 38 38 38 38 37 36 36 36 36 36 35 35 34 33 32 31 30 30 30 31 31 32 32 31 31
53 48 43 38 35 32 31 31 31 31 32 32 33 35 36 38 40 41 42 44 45 46 47 49 50 51 53 54 55 56 58 59 60 62 62 63 62 62 62 61 61 60 60 59 58 56 54 51 48 44 40 37 34 33 33 34 34 35 35 36 36 36 36 36 36 35 35 35 34 35 35 35 35 34 33 32 31 29 28 28 29 30 30 30 30 29
44 39 35 32 30 30 30 30 31 31 32 33 34 36 38 39 41 42 44 45 46 48 49 50 52 53 55 56 57 58 59 60 61 63 64 64 64 64 63 62 62 61 60 59 57 55 52 49 45 41 37 34 32 30 30 31 32 32 33 34 34 34 34 34 34 34 33 33 33 33 34 34 34 34 33 31 30 28 26 26 27 28 29 29 28 27
36 32 30 29 29 29 29 30 31 31 33 34 36 38 39 41 42 44 45 46 48 49 50 52 54 55 57 58 59 60 61 62 63 64 65 65 65 65 64 63 62 61 59 58 56 53 49 45 40 36 33 31 29 28 28 28 28 29 30 31 32 32 33 33 33 32 32 32 32 32 33 34 34 33 32 30 27 25 24 24 25 26 27 27 27 26
30 28 28 28 28 28 29 30 31 32 34 35 37 39 41 42 44 45 46 48 49 50 52 53 55 56 58 59 61 62 63 63 64 65 65 66 66 65 64 63 62 60 58 56 53 50 46 41 36 32 29 27 26 26 26 26 26 27 28 29 29 30 30 31 31 31 31 31 31 32 32 33 33 31 29 27 24 22 22 22 23 25 25 25 25 24
27 27 27 27 28 28 29 30 31 33 35 37 39 40 42 43 45 46 47 49 50 52 53 54 56 57 59 60 62 63 64 64 65 65 65 65 65 65 63 62 60 58 56 53 50 46 42 37 33 30 27 25 24 23 23 23 24 25 25 25 26 27 28 29 29 29 30 30 31 31 32 31 30 28 25 23 21 20 20 21 22 23 24 24 23 22
26 26 27 27 28 28 29 31 33 35 37 38 40 41 43 44 45 47 49 50 52 53 54 55 57 58 59 61 62 63 64 64 64 64 64 64 64 63 62 60 58 56 53 49 45 41 37 33 30 27 26 24 23 21 20 21 22 23 23 23 23 23 25 26 27 28 29 30 30 31 30 28 26 23 21 19 18 18 19 20 21 22 22 22 21 20
25 26 26 27 28 29 31 32 34 36 38 39 41 42 43 45 46 48 49 51 53 54 55 56 57 59 60 61 61 62 63 63 63 63 62 62 61 61 59 58 55 53 49 45 41 37 33 30 28 26 24 23 22 20 19 19 20 21 21 20 20 21 22 24 26 28 29 29 29 28 26 24 21 19 18 17 17 17 18 19 20 20 20 19 18 17
25 26 26 28 29 31 32 34 36 38 39 40 42 43 44 45 47 48 50 51 53 54 56 57 58 58 59 60 60 61 61 61 60 60 59 59 58 57 56 54 52 49 45 40 36 32 29 27 26 25 24 23 21 19 18 17 18 19 19 19 19 19 20 22 25 27 28 27 26 24 22 20 18 16 15 15 15 16 17 18 18 18 17 16 16 15
25 26 27 28 30 32 34 36 37 39 40 41 43 44 45 46 48 49 50 52 53 55 56 57 58 58 59 59 59 59 58 58 57 56 55 55 54 53 51 49 47 43 40 36 32 28 26 25 24 24 23 22 20 18 17 16 15 16 17 17 18 18 19 21 24 25 26 24 22 20 18 16 15 14 13 14 14 15 15 15 15 14 14 14 14 15
25 26 28 30 31 33 35 36 38 40 41 42 44 45 46 48 49 50 51 52 54 55 56 57 58 58 58 58 57 56 55 54 52 52 51 50 49 48 46 43 41 37 34 31 28 26 24 23 23 23 22 21 19 17 15 14 13 13 14 16 17 18 18 20 22 23 22 21 19 17 15 13 12 11 12 12 13 13 13 13 12 13 13 13 14 14
26 28 29 31 33 34 36 37 39 40 42 43 45 46 47 49 50 51 52 53 55 56 57 57 58 58 57 56 54 52 50 49 47 46 45 45 44 42 40 38 35 32 29 27 25 24 23 23 22 22 21 19 18 16 14 12 11 12 13 15 16 17 18 19 19 19 19 17 16 14 12 10 9 9 10 11 11 11 11 11 12 12 12 13 13 13
27 29 30 32 34 35 36 38 40 41 43 44 46 47 48 49 51 52 53 54 55 56 57 57 57 56 54 53 51 48 46 44 42 41 39 38 37 36 34 32 30 27 26 24 23 23 23 23 22 21 19 17 15 14 13 12 11 11 12 14 16 17 17 17 16 15 14 13 12 11 10 8 8 8 9 10 10 10 10 11 11 11 12 12 12 12
28 30 31 33 34 36 38 39 41 42 44 45 46 48 49 50 51 52 53 54 55 55 56 55 54 52 50 48 46 44 41 39 37 36 34 33 32 30 29 27 26 25 24 23 23 23 23 23 22 20 18 15 13 12 12 12 12 12 12 13 14 15 15 14 13 11 10 10 9 9 8 7 7 8 9 10 10 10 10 11 11 11 11 12 12 12
29 31 32 34 35 37 39 40 41 43 44 45 46 48 49 50 51 52 53 54 54 54 53 52 50 48 45 43 41 39 38 36 34 32 30 29 27 26 25 24 23 23 22 22 23 23 24 24 23 20 17 14 12 11 10 11 12 12 13 13 13 13 12 11 10 9 8 8 8 7 7 7 7 8 9 10 10 10 10 10 10 11 11 12 12 13
30 31 33 35 36 38 39 40 42 43 44 45 46 48 49 50 51 52 53 53 52 51 50 48 45 43 40 39 37 36 34 33 31 30 28 26 25 24 23 22 21 21 21 21 22 22 23 24 23 21 17 15 12 10 9 10 11 12 12 11 11 10 9 9 9 8 8 7 7 7 7 7 8 9 10 10 10 10 10 10 10 11 11 12 12 13
31 33 34 36 37 39 40 41 42 42 44 45 46 47 49 50 51 52 51 51 50 48 46 44 41 39 37 35 33 32 31 30 29 28 26 25 24 22 21 21 20 20 19 19 20 21 22 23 23 22 18 16 13 10 9 8 9 10 11 10 9 8 8 8 8 7 7 7 6 6 7 8 8 9 10 10 10 10 10 10 11 11 11 12 12 12
32 34 35 37 38 39 40 41 41 42 43 45 46 47 48 49 50 50 49 48 46 44 42 40 38 36 34 32 31 30 29 28 27 26 25 24 23 22 21 20 20 19 18 18 18 18 19 21 22 22 20 17 14 11 9 8 7 8 9 10 9 8 7 7 7 7 7 6 6 6 7 8 9 10 10 10 10 10 11 11 12 12 12 12 11 11
Wind_Direction
298 298 298 298 298 298 298 298 298 297 297 297 297 296 296 296 296 296 296 296 296 296 296 296 296 296 296 296 297 297 297 297 297 298 298 298 298 298 298 299 299 299 299 299 298 298 297 297 296 295 295 294 293 292 291 290 289 288 288 287 286 285 283 282 281 280 279 279 279 279 279 279 279 279 278 277 276 276 276 276 276 276 276 276 277 277
299 299 299 299 299 299 298 298 298 298 297 297 297 297 297 297 297 296 297 297 297 297 297 297 297 297 297 298 298 298 298 299 299 299 299 299 299 300 300 300 300 300 299 299 299 298 297 297 296 295 294 293 292 291 290 289 289 288 287 286 285 283 282 281 280 279 279 279 279 279 280 279 279 278 277 276 275 275 275 275 275 275 276 276 277 277
299 299 299 299 299 299 299 299 298 298 298 298 297 297 297 297 297 297 297 297 297 298 298 298 298 298 299 299 299 299 300 300 300 300 300 301 301 301 301 301 301 300 300 299 299 298 297 296 295 294 293 292 291 290 290 289 288 287 286 285 284 282 281 280 279 279 279 279 279 280 280 279 278 277 275 274 274 274 274 274 274 275 276 276 276 276
300 300 300 300 299 299 299 299 298 298 298 298 298 298 298 298 298 298 298 298 298 299 299 299 299 300 300 300 300 300 301 301 301 301 301 302 302 302 302 301 301 300 300 299 298 297 296 295 294 293 292 291 291 290 289 288 287 286 285 284 283 282 281 280 279 279 279 279 279 280 279 279 277 276 274 274 273 273 273 274 274 275 276 276 275 274
300 300 300 300 300 299 299 299 299 298 298 298 298 298 298 298 299 299 299 299 299 300 300 300 300 301 301 301 301 302 302 302 302 302 302 302 302 302 302 301 301 300 299 298 297 296 295 294 293 292 292 291 290 289 289 288 287 286 285 283 282 281 280 280 279 279 279 279 279 279 279 278 276 275 273 273 272 273 273 274 274 275 275 275 274 273
301 300 300 300 300 299 299 299 299 299 299 299 299 299 299 299 299 300 300 300 300 301 301 301 302 302 302 302 302 303 303 303 303 303 303 303 302 302 301 301 300 299 298 297 296 295 294 293 292 292 291 290 290 289 288 288 286 285 284 283 282 281 280 279 279 278 278 278 278 277 277 276 275 273 272 272 272 272 272 273 273 274 274 273 272 271
301 301 300 300 300 300 300 300 299 299 299 299 299 299 300 300 300 300 301 301 301 301 302 302 302 303 303 303 303 303 303 304 304 303 303 303 302 302 301 300 299 298 297 296 295 294 293 293 292 292 291 291 290 289 289 288 287 286 284 283 282 281 280 279 278 278 277 277 276 276 275 274 273 272 271 270 270 271 271 271 272 272 272 271 270 269
301 301 301 300 300 300 300 300 300 300 300 300 300 300 300 300 301 301 301 302 302 302 303 303 303 304 304 304 304 304 304 304 304 303 303 302 302 301 300 299 298 297 296 295 295 294 293 293 293 292 292 291 291 290 289 288 287 286 285 284 283 282 281 280 279 278 277 276 275 275 274 272 271 270 269 269 269 269 269 269 270 270 270 270 269 267
301 301 301 301 301 301 300 300 300 300 300 300 300 301 301 301 301 302 302 302 303 303 304 304 304 305 305 305 305 304 304 304 304 303 302 302 301 300 299 298 297 297 296 295 295 294 294 294 294 293 293 293 292 291 290 289 288 287 286 285 284 283 281 280 279 278 277 276 275 274 273 271 270 269 268 267 266 267 267 267 268 268 268 268 267 266
301 301 301 301 300 300 300 300 300 300 300 301 301 301 301 302 302 302 303 303 304 304 305 305 305 305 305 305 305 304 304 303 303 302 301 301 300 299 298 297 297 296 296 295 295 295 295 295 295 294 294 294 293 292 291 290 289 289 287 286 285 284 283 281 280 279 278 277 275 274 273 271 270 268 267 266 265 265 265 265 265 265 265 265 265 264
301 301 301 301 300 300 300 300 300 300 301 301 301 301 302 302 303 303 304 304 305 305 305 306 306 305 305 305 304 304 303 303 302 301 301 300 299 298 297 297 296 296 296 296 296 296 296 296 296 295 295 294 294 293 292 291 291 290 289 288 287 285 284 283 281 280 279 278 276 275 273 272 270 268 267 265 264 263 263 263 263 263 263 263 263 263
301 301 301 301 300 301 300 301 301 301 301 302 302 302 303 303 304 304 305 305 306 306 306 306 306 306 305 304 303 303 302 301 301 300 299 299 298 297 297 297 296 297 297 297 297 297 297 297 297 297 296 295 295 294 293 293 292 291 290 289 288 287 285 284 283 281 280 279 277 276 274 273 271 269 268 266 264 263 262 261 261 261 261 261 261 261
301 301 301 301 301 301 301 301 301 302 302 302 303 303 304 304 305 305 306 306 306 306 306 306 306 305 305 303 302 301 300 300 299 299 298 297 296 296 296 296 297 297 298 298 298 298 298 298 298 298 297 296 296 295 294 294 293 292 291 290 289 288 287 285 284 283 281 280 278 277 275 274 273 271 269 267 265 263 262 261 260 259 259 259 259 259
301 301 301 301 301 301 302 302 302 303 303 303 304 304 305 305 306 306 307 307 307 307 306 306 306 305 304 302 301 300 299 299 298 298 297 297 296 296 296 297 297 298 299 299 299 299 299 299 299 299 298 297 296 296 295 295 294 293 292 291 290 288 287 286 285 283 282 280 279 278 276 275 274 272 271 269 267 265 262 261 259 258 258 257 257 257
302 302 302 302 302 302 302 303 303 303 304 304 305 305 306 306 307 307 307 307 307 307 306 306 305 304 303 301 299 298 297 297 297 297 297 297 296 296 297 298 298 299 300 301 300 300 300 300 300 299 298 298 297 296 296 295 294 293 292 291 290 288 287 286 285 283 282 281 279 278 276 275 274 273 271 270 268 266 263 261 259 258 257 256 255 255
302 302 302 302 303 303 303 304 304 304 305 305 306 306 307 307 307 308 308 307 307 306 306 305 304 303 301 299 297 296 295 296 297 297 297 297 297 297 298 299 300 301 301 302 301 301 301 301 300 300 299 298 297 296 296 295 294 293 292 291 289 288 287 286 285 283 282 281 279 277 276 275 274 273 272 270 269 267 265 262 260 258 256 255 254 254
302 303 303 303 303 304 304 305 305 305 306 306 307 307 308 308 308 308 308 307 307 306 305 304 302 301 299 298 296 295 294 296 297 297 298 298 298 299 300 301 301 302 302 302 302 302 302 302 301 300 299 298 297 296 296 295 294 293 292 290 289 288 287 285 284 283 282 280 279 277 276 274 273 272 271 270 269 267 265 263 261 258 257 255 254 253
303 303 303 304 304 304 305 306 306 306 307 307 308 308 308 308 308 308 307 307 306 305 304 303 301 299 297 295 294 294 294 296 297 297 299 299 299 300 301 302 303 303 303 303 303 303 303 302 301 300 299 298 297 296 296 295 294 293 291 290 289 287 286 285 284 283 282 280 279 277 276 275 274 273 272 271 269 268 266 264 261 259 257 255 254 253
304 304 304 305 305 305 306 306 307 307 308 308 308 308 308 308 308 308 307 306 305 303 302 301 299 297 295 294 293 293 294 296 297 298 299 300 300 301 302 303 303 304 304 304 304 304 304 303 302 301 300 298 297 297 296 295 294 293 291 290 288 287 286 284 283 282 281 280 279 278 276 275 274 273 272 272 270 269 267 264 262 259 257 255 254 253
304 305 305 306 306 306 307 307 308 308 308 308 308 309 308 308 308 307 306 304 303 302 300 299 297 296 295 294 294 294 295 297 298 299 300 301 301 301 302 303 304 304 305 305 305 305 305 304 303 302 301 299 298 297 296 295 294 292 291 290 288 287 285 284 283 281 280 279 278 277 276 275 274 274 273 272 271 269 267 265 262 259 257 255 254 252
305 306 306 306 307 307 308 308 308 308 309 309 309 309 308 308 307 306 304 303 301 300 299 298 296 295 295 295 294 295 296 297 299 299 301 302 302 302 303 303 304 305 305 306 306 306 306 306 305 304 302 300 299 298 296 295 294 292 291 289 288 286 285 283 282 281 280 279 278 277 276 275 275 274 273 273 272 270 268 266 263 260 257 255 253 252
306 307 307 307 308 308 308 309 309 309 309 309 308 308 308 307 306 304 302 301 299 298 297 296 295 295 295 295 295 296 296 297 299 300 301 302 302 303 303 304 305 305 306 306 307 307 308 307 307 305 304 302 300 298 297 295 293 292 290 289 287 286 284 283 281 280 279 278 277 277 276 275 275 274 274 273 272 271 269 267 264 261 258 256 254 252
307 307 308 308 308 309 309 309 309 309 309 309 308 307 307 305 304 302 300 298 297 296 296 295 295 295 295 296 296 296 297 298 299 300 302 303 303 304 304 305 305 306 307 307 307 308 308 308 308 306 305 303 300 298 296 295 293 291 289 287 286 285 283 282 281 280 279 278 277 276 276 275 275 274 274 273 273 272 270 268 265 262 259 256 254 252
307 308 308 309 309 309 309 309 309 309 308 308 307 306 305 304 302 300 298 297 296 295 295 295 295 295 296 297 297 298 298 299 300 302 303 304 305 305 305 305 306 306 307 307 308 308 309 309 308 307 305 303 301 299 296 294 292 290 288 286 285 284 283 281 280 279 279 278 277 276 276 275 275 274 274 273 273 272 271 269 266 263 260 257 254 252
308 308 309 309 309 309 309 309 309 308 307 307 306 305 304 302 300 298 297 295 295 295 295 295 295 296 297 298 300 300 300 301 302 303 304 305 306 306 306 306 306 307 307 308 308 308 309 309 308 307 306 303 301 299 296 294 291 289 287 286 284 283 282 281 280 279 278 277 276 276 275 275 274 274 273 273 273 272 271 269 267 264 261 258 255 253
309 309 309 309 310 309 309 309 308 307 306 305 304 303 301 300 298 297 295 295 295 295 296 297 297 298 299 300 301 301 302 302 303 304 305 306 307 307 307 307 307 307 307 308 308 308 309 309 308 307 305 303 301 299 296 293 291 289 287 285 284 283 282 281 280 279 278 277 276 275 274 274 273 272 272 272 272 272 271 270 268 265 262 259 256 253
309 309 309 309 309 309 309 308 307 306 305 304 302 301 299 298 297 296 295 295 296 297 298 299 299 300 301 302 302 302 303 303 303 304 306 307 307 307 307 307 307 307 307 307 308 308 308 308 308 307 305 303 301 299 296 293 290 288 286 285 284 282 281 280 279 279 278 277 276 275 274 273 272 272 271 271 272 272 271 270 268 266 263 260 256 254
309 309 309 309 309 308 308 307 306 305 303 302 300 299 297 297 296 296 295 296 298 299 299 300 301 301 302 302 303 303 303 303 303 305 306 307 307 307 307 307 307 306 306 307 307 308 308 308 307 306 305 303 301 298 295 293 290 288 286 285 283 282 281 280 279 278 277 276 275 274 273 272 272 271 271 271 271 271 271 270 269 266 263 260 257 254
309 309 309 309 308 308 307 306 304 303 301 300 299 298 297 297 297 297 297 298 300 300 301 302 302 303 303 303 304 304 304 303 304 305 306 307 307 307 307 307 307 306 306 306 307 307 308 308 307 306 305 303 301 298 295 292 290 288 286 284 283 282 281 280 279 278 277 276 275 274 273 272 271 271 271 271 271 271 271 270 269 266 264 260 257 254
309 309 309 308 307 307 305 304 303 301 300 299 298 298 298 298 298 299 299 300 301 302 302 303 303 304 304 304 305 304 304 304 304 305 306 307 307 307 307 307 307 306 307 307 307 307 307 307 307 305 304 302 300 297 294 291 289 287 285 284 282 281 280 279 278 278 277 276 274 273 272 272 271 271 271 271 271 271 271 270 269 267 264 261 257 254
309 308 308 307 306 305 304 303 302 301 300 299 298 299 299 300 300 301 302 303 303 304 304 304 305 305 305 306 306 305 305 305 305 306 307 307 307 307 307 307 307 307 307 307 307 307 307 307 306 305 303 301 299 296 293 290 288 286 284 283 281 280 279 278 278 277 276 275 274 273 272 272 271 271 271 271 271 271 271 270 269 267 264 261 257 254
308 307 306 306 305 304 303 302 301 300 300 300 300 300 301 301 302 303 304 304 305 305 306 306 306 306 307 307 307 307 306 306 306 306 307 307 307 307 307 307 307 307 307 307 307 307 307 307 306 304 302 300 297 295 292 290 287 285 284 282 280 279 278 277 277 276 275 274 273 272 272 272 271 272 272 272 272 272 272 270 269 266 263 260 257 253
307 306 305 304 303 302 301 301 301 301 300 300 301 301 302 303 304 305 306 306 306 307 307 307 308 308 308 308 308 308 308 307 307 307 307 307 308 308 308 308 307 307 307 307 307 307 307 307 306 304 302 299 296 294 291 289 287 284 283 281 279 278 277 276 276 275 274 273 272 272 272 272 272 272 273 274 274 274 272 271 268 265 262 259 255 252
306 305 304 303 302 301 301 301 301 301 301 301 302 303 304 305 306 306 307 308 308 308 309 309 309 309 309 309 309 309 308 308 308 308 308 308 308 308 308 308 308 308 307 307 307 307 307 306 306 304 301 298 295 292 290 288 286 283 281 280 278 277 276 275 274 273 273 272 272 272 272 272 273 274 275 276 276 275 273 270 267 264 261 257 254 250
304 303 302 302 301 301 301 301 301 302 302 302 303 304 305 306 307 308 308 309 310 310 310 311 311 310 310 310 310 310 309 309 309 309 309 309 309 309 309 308 308 308 308 307 307 307 307 306 305 303 300 297 294 291 289 287 285 283 281 279 277 276 275 274 273 272 272 271 271 271 272 273 274 275 277 278 279 277 274 269 265 262 259 255 252 248
303 302 302 302 302 302 302 302 302 303 303 304 305 306 307 308 308 309 310 310 311 312 312 312 312 312 311 311 311 311 310 310 310 310 309 309 309 309 309 309 309 308 308 308 308 307 307 306 304 302 300 297 294 291 288 286 284 282 280 278 277 276 274 273 272 271 271 270 271 271 272 274 275 277 279 281 281 278 273 267 263 259 256 253 249 245
303 302 302 302 303 303 302 303 303 304 304 305 306 307 308 309 310 311 311 312 313 313 313 313 313 313 313 312 312 312 311 311 311 310 310 310 310 309 309 309 309 309 309 309 308 308 308 306 305 302 299 297 295 292 288 286 283 281 279 277 276 275 274 273 272 272 271 271 271 272 273 274 276 279 281 282 281 277 271 265 259 255 252 249 246 242
303 303 303 304 304 303 303 303 304 305 306 307 308 309 310 311 312 313 313 313 314 314 314 314 314 314 314 314 313 313 313 312 312 311 311 310 310 310 310 310 310 310 310 310 310 309 309 308 306 303 300 297 295 293 290 287 283 280 278 276 276 275 274 273 273 272 272 272 272 272 273 275 278 280 282 282 280 274 268 261 255 252 249 246 243 240
304 304 304 304 304 304 304 304 305 306 307 308 309 311 312 313 314 314 314 315 315 315 315 315 315 315 315 315 314 314 313 313 313 312 312 311 311 311 310 311 311 311 311 311 311 311 311 310 308 306 303 299 297 294 292 289 286 282 278 276 275 275 274 274 273 273 272 272 273 274 276 278 280 282 282 280 276 270 264 257 252 248 246 243 241 238
305 305 305 305 305 305 305 306 307 308 309 310 312 313 314 315 315 316 316 316 316 316 316 316 316 316 316 315 315 315 314 314 313 313 312 312 312 311 311 311 312 312 312 313 313 313 312 312 310 308 306 303 300 298 295 292 288 284 280 277 275 274 274 274 274 273 273 274 274 276 278 280 282 283 281 278 272 265 259 253 248 245 243 241 239 236
307 307 306 306 306 307 307 308 309 310 311 313 314 315 316 316 317 317 317 317 317 317 317 317 317 317 317 316 316 315 315 314 314 314 313 312 312 312 312 312 312 313 314 314 315 315 314 314 312 311 309 306 304 302 300 296 292 287 283 280 276 274 273 273 273 273 274 275 277 279 281 282 283 282 280 274 267 259 253 248 245 243 241 238 234 229
308 308 308 308 308 309 310 311 312 313 314 315 316 316 317 317 317 318 318 318 318 318 318 318 317 317 317 316 316 316 315 315 314 314 313 312 312 312 312 312 313 314 315 316 317 317 317 316 314 312 311 309 308 306 304 300 295 291 287 283 279 274 272 272 272 273 275 277 279 281 283 284 283 281 276 268 260 253 248 244 242 239 235 229 222 216
309 309 310 310 311 312 313 314 315 316 317 317 317 318 318 318 318 318 318 318 318 318 318 318 318 317 317 317 316 316 316 315 314 313 313 312 312 312 313 313 315 316 317 318 319 320 319 317 316 314 312 312 312 311 309 304 299 294 290 285 280 275 271 271 272 274 276 279 282 284 285 284 282 276 268 260 253 248 244 240 236 230 224 217 210 206
311 311 312 313 314 315 316 317 317 318 318 319 319 319 319 319 319 319 319 319 319 319 319 318 318 318 318 318 317 317 316 316 315 314 313 313 313 314 315 316 317 319 321 322 322 322 322 319 317 316 315 316 316 316 314 310 304 298 292 286 281 276 272 270 271 274 278 282 285 287 286 283 275 266 257 251 246 242 236 231 225 218 212 207 205 205
314 314 315 316 317 318 319 319 320 320 320 320 320 320 320 320 320 321 321 320 320 320 320 320 320 320 319 319 319 319 318 318 317 316 316 316 317 318 319 320 322 323 325 326 326 325 323 321 319 319 319 321 322 323 322 316 309 299 292 286 281 279 277 276 276 278 280 283 286 287 284 276 265 253 245 239 235 231 226 220 216 212 210 209 210 212
317 318 319 320 320 321 321 321 321 321 322 322 322 322 322 322 322 322 322 322 321 321 321 321 321 322 322 322 321 321 321 321 321 321 321 321 322 323 324 326 327 329 329 329 328 326 324 323 322 323 325 327 329 329 327 320 310 300 291 285 282 282 282 283 284 285 285 285 284 282 277 266 252 239 231 227 225 222 219 216 215 215 216 217 220 221
321 322 322 323 323 323 323 323 323 323 323 323 323 323 323 323 323 323 323 323 323 323 323 323 324 324 324 324 324 325 325 326 327 328 328 329 330 330 331 331 332 333 333 331 329 327 325 324 325 328 331 335 338 338 332 321 311 300 292 287 285 285 287 288 290 290 288 285 280 275 267 254 238 226 219 218 217 218 218 218 220 222 225 227 228 229
325 325 325 325 324 324 324 324 324 324 324 324 324 324 324 324 324 324 324 324 324 325 325 325 326 327 327 328 328 329 330 331 333 335 336 337 337 337 336 336 336 335 334 333 331 328 326 325 326 330 336 340 344 344 336 322 310 301 296 292 290 290 292 294 294 293 288 282 275 266 254 239 226 216 212 212 214 218 221 225 229 232 233 234 233 233
327 327 326 326 326 325 325 325 325 325 325 325 325 325 325 325 325 326 326 326 326 327 327 328 329 330 331 331 332 333 334 336 339 340 342 343 342 342 340 339 338 336 335 333 330 328 325 324 327 332 339 341 342 341 334 319 308 302 299 298 297 297 298 297 296 293 287 280 270 256 242 226 215 208 207 209 213 219 227 235 239 240 239 237 236 236
328 328 327 327 327 327 327 327 327 327 327 327 326 326 327 327 327 327 327 328 328 329 330 331 332 333 334 335 336 337 338 340 342 343 344 345 344 343 342 340 339 337 334 332 329 327 324 322 324 330 340 344 343 338 330 317 306 300 299 300 302 303 303 300 297 293 287 277 264 247 231 217 209 206 207 210 216 224 235 243 248 247 243 240 238 238
329 328 328 328 328 328 328 328 328 328 328 328 328 328 328 328 329 329 329 330 331 332 333 334 335 336 337 338 339 340 341 342 343 344 345 345 344 343 342 340 338 337 334 332 329 326 322 319 319 323 331 341 345 340 331 322 310 300 296 299 303 307 307 303 298 292 284 272 255 237 223 215 211 211 212 216 221 230 241 250 255 254 249 244 241 242
Height
5614 5612 5610 5608 5606 5604 5601 5599 5597 5595 5592 5590 5589 5586 5584 5581 5579 5576 5574 5571 5568 5566 5563 5561 5558 5555 5552 5549 5546 5543 5540 5538 5535 5532 5529 5526 5523 5520 5517 5514 5511 5508 5505 5501 5498 5494 5491 5488 5484 5481 5478 5475 5473 5470 5468 5465 5463 5461 5460 5458 5456 5455 5454 5453 5451 5450 5449 5448 5447 5446 5445 5444 5442 5441 5440 5439 5438 5437 5436 5435 5435 5434 5433 5432 5431 5430
5609 5607 5605 5603 5601 5599 5596 5594 5591 5590 5587 5585 5583 5581 5578 5576 5573 5571 5568 5565 5562 5560 5557 5554 5551 5548 5545 5542 5539 5536 5533 5530 5527 5524 5521 5518 5515 5511 5508 5505 5502 5498 5495 5491 5488 5484 5481 5478 5475 5472 5469 5466 5464 5462 5460 5458 5456 5454 5453 5451 5450 5449 5448 5447 5446 5445 5444 5443 5442 5441 5440 5439 5437 5436 5435 5434 5433 5432 5432 5431 5430 5429 5429 5428 5427 5426
5605 5602 5600 5598 5596 5593 5591 5588 5586 5584 5581 5579 5577 5575 5573 5570 5568 5565 5562 5559 5556 5553 5550 5547 5545 5541 5538 5535 5532 5529 5525 5522 5519 5516 5512 5509 5506 5502 5499 5495 5492 5488 5485 5481 5478 5475 5471 5468 5465 5463 5460 5458 5456 5454 5452 5451 5449 5448 5447 5445 5444 5443 5442 5441 5440 5439 5439 5438 5437 5435 5435 5434 5432 5431 5430 5430 5429 5428 5427 5426 5425 5425 5425 5424 5423 5423
5600 5597 5595 5593 5590 5588 5586 5583 5580 5578 5576 5574 5571 5569 5566 5564 5562 5559 5556 5553 5550 5547 5544 5540 5538 5534 5531 5527 5524 5521 5517 5514 5510 5507 5504 5500 5497 5493 5490 5486 5482 5479 5475 5472 5468 5465 5462 5460 5457 5455 5453 5451 5449 5447 5446 5444 5443 5442 5441 5440 5439 5438 5437 5436 5435 5434 5433 5432 5431 5430 5430 5429 5427 5426 5425 5425 5424 5423 5422 5422 5421 5421 5420 5420 5419 5419
5595 5592 5590 5588 5585 5583 5580 5578 5575 5572 5570 5568 5565 5563 5560 5558 5555 5553 5550 5547 5544 5540 5537 5534 5530 5527 5523 5520 5516 5513 5509 5506 5502 5499 5495 5491 5488 5484 5480 5477 5473 5470 5466 5463 5460 5457 5454 5452 5450 5447 5445 5444 5443 5441 5440 5439 5437 5436 5435 5434 5433 5432 5431 5430 5430 5429 5428 5427 5426 5426 5425 5424 5423 5422 5421 5420 5419 5419 5418 5417 5417 5416 5416 5416 5415 5415
5589 5587 5584 5582 5580 5577 5575 5572 5569 5566 5564 5561 5559 5557 5555 5552 5549 5546 5543 5540 5537 5534 5530 5527 5523 5520 5516 5512 5508 5505 5501 5498 5494 5490 5486 5483 5479 5475 5472 5468 5465 5461 5458 5455 5452 5449 5447 5445 5443 5441 5440 5438 5437 5435 5434 5433 5432 5430 5430 5429 5428 5427 5426 5425 5424 5424 5423 5422 5422 5421 5420 5419 5418 5417 5416 5415 5415 5414 5413 5413 5412 5412 5412 5411 5411 5410
5584 5581 5579 5576 5574 5571 5569 5566 5563 5560 5558 5556 5553 5551 5549 5546 5543 5540 5537 5534 5530 5527 5524 5520 5516 5512 5508 5504 5500 5496 5493 5489 5486 5482 5478 5474 5470 5467 5463 5460 5457 5454 5450 5448 5445 5442 5440 5438 5436 5435 5434 5432 5431 5430 5429 5427 5426 5425 5424 5423 5422 5421 5420 5419 5419 5418 5418 5417 5416 5416 5415 5414 5413 5413 5412 5411 5410 5410 5409 5408 5408 5408 5408 5407 5407 5406
5578 5576 5574 5571 5569 5566 5563 5560 5558 5555 5552 5550 5547 5545 5543 5540 5537 5534 5531 5527 5523 5520 5517 5513 5509 5505 5500 5496 5491 5488 5484 5480 5477 5474 5470 5466 5462 5459 5455 5452 5449 5446 5443 5441 5438 5436 5434 5432 5430 5429 5428 5427 5425 5424 5423 5422 5420 5419 5418 5417 5416 5415 5414 5414 5413 5412 5412 5411 5411 5410 5410 5409 5409 5408 5407 5407 5406 5405 5405 5404 5404 5404 5404 5404 5403 5403
5573 5570 5568 5566 5564 5561 5558 5555 5552 5549 5546 5543 5541 5539 5537 5534 5531 5528 5525 5521 5517 5513 5509 5506 5502 5497 5492 5487 5483 5480 5476 5472 5469 5466 5463 5459 5455 5451 5448 5445 5443 5440 5437 5435 5432 5430 5428 5426 5425 5424 5423 5421 5420 5419 5417 5416 5415 5414 5412 5411 5410 5409 5409 5408 5407 5407 5406 5406 5405 5405 5405 5404 5404 5403 5403 5402 5401 5401 5400 5400 5400 5400 5400 5400 5399 5399
5568 5565 5563 5560 5558 5555 5553 5549 5546 5543 5541 5538 5535 5532 5530 5528 5525 5522 5518 5515 5511 5506 5502 5498 5495 5490 5485 5479 5475 5471 5469 5465 5461 5458 5455 5452 5449 5445 5442 5439 5437 5435 5432 5429 5427 5425 5423 5421 5420 5418 5417 5416 5415 5413 5412 5410 5409 5408 5407 5406 5405 5404 5403 5402 5402 5401 5400 5400 5400 5399 5399 5399 5398 5398 5398 5397 5397 5396 5396 5395 5395 5395 5395 5395 5395 5395
5562 5560 5558 5555 5552 5550 5547 5544 5541 5538 5535 5532 5529 5525 5523 5521 5519 5515 5511 5508 5504 5500 5495 5490 5486 5482 5478 5473 5467 5463 5460 5458 5455 5452 5448 5445 5442 5439 5436 5434 5432 5429 5427 5425 5422 5420 5418 5416 5415 5413 5412 5411 5409 5408 5406 5405 5404 5403 5402 5400 5400 5398 5398 5397 5396 5395 5395 5395 5394 5394 5393 5393 5393 5392 5392 5392 5392 5392 5391 5391 5391 5391 5391 5391 5391 5391
5557 5555 5552 5550 5547 5544 5541 5538 5535 5532 5529 5526 5523 5520 5516 5513 5510 5508 5505 5501 5497 5493 5489 5484 5478 5474 5469 5465 5461 5457 5453 5451 5449 5446 5443 5440 5436 5433 5431 5429 5427 5425 5422 5420 5417 5415 5413 5412 5410 5408 5407 5405 5404 5403 5401 5400 5399 5398 5396 5395 5394 5393 5392 5391 5391 5390 5390 5389 5389 5388 5388 5387 5387 5387 5387 5387 5387 5387 5387 5387 5387 5387 5387 5387 5387 5387
5552 5550 5547 5544 5540 5538 5535 5532 5529 5525 5523 5520 5517 5513 5510 5506 5503 5500 5497 5493 5489 5485 5481 5477 5472 5466 5461 5456 5453 5450 5447 5445 5444 5441 5439 5435 5432 5429 5427 5425 5423 5420 5418 5416 5413 5410 5408 5407 5405 5404 5402 5400 5399 5398 5396 5395 5394 5393 5391 5390 5389 5388 5387 5386 5385 5385 5384 5384 5383 5383 5382 5382 5382 5381 5381 5381 5381 5382 5382 5382 5382 5382 5383 5383 5383 5383
5546 5543 5540 5537 5534 5531 5528 5525 5522 5519 5515 5513 5510 5507 5503 5500 5496 5493 5489 5485 5480 5476 5473 5470 5465 5460 5455 5450 5445 5443 5441 5440 5439 5437 5435 5431 5427 5425 5424 5422 5419 5416 5415 5412 5410 5406 5404 5402 5401 5399 5397 5395 5394 5393 5391 5390 5389 5388 5387 5385 5385 5383 5382 5381 5380 5380 5379 5379 5378 5378 5377 5377 5376 5376 5376 5376 5376 5376 5377 5377 5378 5378 5378 5378 5379 5379
5540 5537 5534 5531 5528 5525 5522 5519 5515 5512 5509 5506 5503 5500 5496 5492 5488 5485 5481 5477 5473 5468 5465 5462 5458 5453 5448 5443 5439 5437 5435 5434 5433 5433 5431 5428 5423 5420 5419 5418 5416 5413 5411 5409 5406 5403 5400 5399 5397 5395 5392 5391 5389 5388 5387 5385 5384 5383 5382 5381 5380 5379 5377 5376 5376 5375 5375 5374 5374 5373 5373 5372 5372 5371 5370 5370 5370 5371 5372 5372 5373 5374 5374 5375 5375 5375
5534 5531 5528 5525 5522 5519 5515 5512 5509 5505 5502 5499 5495 5492 5489 5485 5480 5476 5473 5469 5465 5461 5457 5455 5452 5448 5443 5436 5432 5430 5430 5430 5429 5428 5427 5425 5420 5416 5415 5415 5413 5410 5407 5405 5402 5400 5397 5395 5393 5390 5388 5386 5385 5383 5382 5381 5380 5379 5377 5376 5375 5374 5373 5372 5371 5370 5370 5369 5369 5368 5368 5367 5367 5366 5365 5365 5365 5366 5366 5367 5368 5369 5369 5370 5370 5370
5528 5525 5522 5519 5515 5512 5509 5505 5502 5499 5495 5492 5489 5485 5481 5477 5473 5469 5465 5461 5457 5454 5450 5447 5445 5443 5439 5433 5427 5423 5423 5425 5425 5423 5423 5421 5417 5413 5411 5410 5409 5407 5404 5401 5399 5396 5394 5391 5389 5386 5384 5382 5380 5379 5377 5376 5375 5374 5372 5371 5370 5369 5368 5367 5366 5365 5365 5365 5364 5364 5363 5363 5362 5361 5361 5360 5360 5360 5361 5362 5363 5364 5364 5365 5365 5366
5522 5519 5515 5512 5509 5506 5503 5499 5495 5491 5488 5485 5481 5478 5474 5469 5465 5461 5457 5453 5450 5446 5444 5440 5438 5435 5434 5431 5425 5420 5418 5420 5420 5420 5419 5417 5414 5410 5407 5406 5405 5403 5401 5398 5395 5392 5390 5388 5385 5382 5380 5378 5375 5374 5372 5371 5370 5369 5368 5366 5365 5364 5363 5362 5362 5361 5360 5360 5360 5359 5358 5358 5357 5357 5356 5355 5355 5355 5356 5357 5358 5359 5359 5360 5361 5361
5515 5512 5509 5505 5502 5499 5496 5492 5488 5484 5480 5477 5474 5470 5467 5462 5458 5454 5450 5446 5443 5440 5437 5435 5432 5429 5427 5425 5421 5417 5415 5416 5416 5416 5415 5414 5411 5407 5404 5403 5401 5400 5397 5395 5392 5389 5387 5384 5382 5379 5376 5373 5371 5369 5368 5366 5365 5364 5363 5361 5360 5359 5358 5358 5357 5356 5356 5355 5355 5355 5354 5353 5353 5352 5351 5351 5351 5350 5351 5352 5353 5353 5354 5355 5356 5356
5509 5506 5502 5499 5496 5492 5488 5485 5481 5477 5473 5469 5466 5463 5460 5455 5451 5447 5443 5440 5437 5434 5431 5430 5427 5425 5422 5420 5417 5414 5411 5412 5412 5412 5411 5410 5408 5405 5401 5400 5398 5396 5394 5391 5388 5386 5383 5381 5378 5375 5372 5369 5367 5365 5363 5361 5360 5359 5357 5356 5355 5354 5353 5353 5352 5351 5351 5351 5350 5350 5350 5349 5348 5348 5347 5347 5346 5346 5346 5347 5347 5348 5349 5350 5351 5352
5502 5499 5495 5492 5489 5485 5482 5478 5473 5469 5465 5461 5458 5455 5451 5448 5445 5441 5437 5434 5431 5429 5426 5425 5422 5420 5418 5416 5413 5410 5408 5408 5408 5408 5407 5407 5405 5401 5398 5396 5394 5393 5390 5388 5385 5382 5380 5377 5374 5371 5368 5365 5362 5360 5358 5356 5355 5353 5352 5351 5350 5349 5348 5347 5347 5346 5346 5346 5346 5345 5345 5345 5344 5344 5343 5342 5342 5342 5342 5342 5343 5343 5344 5345 5346 5347
5496 5492 5488 5485 5481 5478 5475 5471 5466 5461 5457 5454 5451 5448 5444 5441 5438 5435 5431 5429 5426 5425 5422 5420 5418 5416 5414 5412 5410 5406 5404 5404 5404 5404 5404 5403 5401 5398 5395 5392 5390 5389 5387 5384 5381 5379 5376 5374 5370 5368 5365 5361 5358 5356 5353 5351 5350 5348 5346 5345 5344 5343 5342 5341 5341 5341 5341 5341 5341 5341 5341 5340 5340 5339 5339 5338 5337 5337 5337 5337 5338 5338 5339 5340 5341 5342
5489 5486 5482 5478 5474 5471 5467 5463 5459 5454 5450 5446 5443 5440 5438 5435 5433 5430 5427 5424 5422 5420 5419 5417 5415 5412 5410 5408 5406 5403 5400 5400 5400 5400 5399 5399 5397 5394 5391 5388 5386 5385 5383 5380 5377 5375 5372 5370 5367 5364 5361 5358 5355 5351 5349 5347 5345 5343 5341 5340 5339 5337 5336 5336 5336 5336 5336 5336 5336 5336 5336 5336 5335 5335 5334 5334 5333 5333 5333 5333 5333 5334 5335 5335 5336 5337
5482 5479 5475 5471 5468 5464 5460 5456 5452 5447 5443 5440 5437 5434 5432 5429 5426 5424 5421 5419 5418 5417 5415 5414 5412 5410 5407 5405 5403 5400 5396 5395 5395 5395 5394 5394 5392 5390 5387 5384 5382 5380 5379 5376 5374 5371 5369 5366 5363 5360 5357 5354 5350 5347 5345 5342 5340 5338 5336 5335 5333 5332 5331 5330 5330 5330 5331 5331 5332 5332 5332 5332 5331 5331 5330 5330 5329 5329 5328 5328 5329 5329 5330 5330 5331 5332
5475 5472 5469 5465 5461 5457 5453 5449 5445 5441 5438 5435 5432 5429 5426 5424 5421 5419 5417 5415 5414 5413 5412 5411 5409 5406 5404 5402 5399 5396 5392 5390 5390 5390 5390 5389 5387 5386 5383 5380 5378 5376 5374 5372 5370 5367 5365 5362 5360 5356 5353 5350 5346 5343 5340 5338 5335 5333 5331 5329 5328 5327 5326 5325 5325 5325 5326 5326 5327 5327 5327 5327 5327 5326 5326 5325 5325 5325 5324 5324 5324 5325 5325 5326 5327 5328
5469 5465 5462 5458 5454 5450 5446 5443 5439 5435 5431 5428 5425 5423 5421 5420 5417 5415 5413 5412 5411 5410 5408 5407 5405 5403 5401 5399 5396 5392 5389 5386 5385 5385 5385 5384 5383 5381 5379 5376 5374 5372 5370 5368 5366 5363 5361 5358 5355 5352 5349 5345 5342 5339 5336 5333 5330 5328 5326 5325 5323 5322 5321 5320 5320 5320 5321 5322 5322 5323 5323 5323 5323 5322 5322 5321 5321 5320 5320 5320 5320 5320 5321 5321 5322 5323
5461 5458 5455 5451 5447 5443 5440 5436 5432 5429 5425 5423 5420 5419 5417 5416 5415 5413 5410 5409 5408 5406 5405 5403 5401 5399 5397 5395 5393 5389 5386 5383 5380 5380 5380 5379 5378 5376 5374 5371 5369 5367 5365 5364 5362 5360 5357 5354 5351 5348 5345 5341 5338 5335 5332 5329 5326 5323 5321 5320 5318 5317 5316 5315 5315 5315 5316 5317 5317 5318 5318 5318 5318 5318 5318 5317 5317 5316 5316 5316 5316 5316 5316 5317 5318 5319
5454 5451 5447 5444 5440 5437 5433 5430 5426 5424 5421 5419 5416 5415 5413 5412 5411 5410 5407 5406 5405 5403 5401 5400 5398 5396 5394 5392 5390 5386 5383 5379 5377 5376 5375 5375 5373 5371 5369 5367 5364 5362 5360 5359 5357 5356 5353 5350 5346 5343 5340 5337 5334 5331 5328 5325 5321 5319 5317 5315 5314 5313 5311 5311 5310 5311 5311 5312 5313 5313 5314 5314 5314 5314 5314 5314 5313 5313 5312 5312 5312 5312 5312 5313 5314 5315
5447 5444 5440 5437 5434 5431 5428 5425 5421 5419 5416 5415 5413 5411 5410 5409 5408 5407 5405 5403 5402 5400 5398 5396 5394 5392 5390 5389 5386 5384 5380 5376 5373 5371 5371 5370 5368 5366 5365 5362 5359 5357 5355 5353 5352 5351 5350 5346 5342 5338 5335 5332 5330 5326 5323 5320 5317 5315 5313 5311 5310 5308 5307 5306 5306 5306 5307 5308 5308 5309 5309 5309 5310 5310 5310 5310 5309 5309 5308 5308 5308 5308 5308 5309 5310 5310
5440 5436 5433 5430 5427 5425 5422 5420 5417 5415 5413 5411 5410 5408 5407 5406 5405 5404 5402 5400 5399 5397 5395 5393 5390 5389 5387 5385 5383 5380 5376 5372 5369 5367 5366 5365 5363 5361 5360 5357 5354 5352 5349 5347 5345 5345 5345 5343 5339 5334 5330 5327 5325 5322 5319 5316 5313 5310 5309 5307 5305 5304 5303 5302 5302 5302 5303 5304 5304 5304 5305 5305 5305 5305 5306 5306 5305 5305 5305 5304 5304 5304 5304 5305 5305 5306
5434 5430 5427 5424 5421 5419 5416 5415 5413 5411 5410 5408 5407 5405 5404 5403 5401 5400 5399 5397 5395 5394 5391 5389 5387 5385 5383 5381 5379 5376 5373 5369 5365 5363 5362 5360 5358 5356 5355 5352 5349 5346 5344 5341 5339 5338 5337 5337 5335 5331 5326 5323 5320 5317 5315 5311 5309 5306 5305 5303 5302 5300 5299 5298 5298 5299 5299 5300 5300 5300 5300 5301 5301 5301 5302 5302 5302 5301 5301 5300 5300 5300 5300 5300 5301 5302
5429 5425 5422 5419 5416 5414 5412 5411 5409 5408 5407 5405 5404 5403 5401 5400 5399 5397 5395 5393 5392 5390 5388 5386 5384 5381 5379 5377 5375 5372 5368 5365 5361 5358 5357 5355 5353 5351 5350 5347 5344 5341 5339 5336 5334 5331 5330 5329 5329 5327 5323 5319 5316 5313 5310 5308 5305 5303 5301 5299 5298 5297 5295 5295 5295 5295 5295 5296 5296 5296 5296 5296 5297 5297 5298 5298 5298 5298 5297 5297 5296 5296 5296 5297 5298 5298
5424 5421 5418 5415 5413 5411 5409 5408 5407 5405 5404 5403 5402 5400 5399 5397 5395 5394 5392 5390 5388 5386 5385 5382 5380 5377 5375 5373 5370 5367 5364 5360 5356 5353 5351 5350 5347 5345 5344 5342 5339 5335 5333 5331 5328 5326 5324 5322 5321 5320 5318 5315 5312 5309 5306 5304 5301 5299 5297 5296 5294 5293 5292 5292 5291 5291 5292 5292 5292 5292 5292 5293 5293 5293 5294 5294 5294 5294 5294 5293 5293 5292 5292 5293 5294 5295
5420 5417 5414 5412 5410 5408 5407 5406 5405 5404 5402 5401 5399 5398 5396 5395 5393 5391 5389 5387 5385 5383 5381 5379 5376 5374 5371 5368 5365 5363 5360 5355 5351 5348 5345 5344 5341 5340 5338 5336 5333 5330 5327 5325 5323 5320 5318 5316 5315 5313 5311 5310 5308 5305 5302 5300 5297 5295 5294 5292 5291 5290 5289 5289 5288 5288 5289 5289 5289 5289 5289 5289 5289 5290 5290 5290 5290 5290 5290 5290 5289 5289 5289 5289 5290 5291
5415 5413 5411 5410 5408 5406 5405 5404 5403 5401 5400 5399 5397 5395 5394 5392 5390 5388 5386 5384 5381 5379 5377 5375 5372 5370 5367 5364 5361 5358 5355 5351 5347 5343 5340 5337 5335 5333 5331 5329 5327 5325 5321 5319 5317 5315 5312 5310 5309 5307 5305 5304 5303 5301 5299 5296 5294 5292 5290 5289 5288 5287 5286 5286 5285 5285 5285 5286 5285 5285 5285 5285 5285 5286 5286 5286 5286 5286 5286 5286 5286 5285 5285 5286 5287 5288
5412 5410 5409 5408 5406 5405 5403 5402 5401 5400 5398 5396 5395 5393 5391 5389 5387 5385 5383 5380 5378 5375 5373 5370 5368 5365 5362 5359 5356 5353 5350 5346 5342 5338 5335 5331 5329 5327 5325 5323 5321 5319 5315 5312 5311 5309 5307 5305 5303 5302 5300 5299 5297 5297 5295 5293 5291 5289 5287 5286 5285 5284 5283 5283 5282 5283 5283 5283 5283 5283 5282 5282 5282 5282 5283 5283 5283 5283 5283 5283 5282 5282 5282 5283 5283 5285
5410 5408 5407 5406 5405 5403 5402 5400 5399 5398 5396 5394 5392 5390 5389 5387 5385 5382 5380 5377 5375 5372 5370 5366 5363 5360 5357 5353 5350 5347 5344 5340 5337 5333 5330 5326 5323 5321 5319 5317 5315 5313 5310 5306 5304 5303 5301 5299 5298 5297 5295 5294 5293 5292 5291 5290 5288 5286 5284 5283 5282 5281 5280 5280 5280 5280 5280 5280 5280 5280 5280 5279 5279 5279 5280 5280 5280 5280 5280 5279 5279 5279 5279 5280 5280 5281
5407 5406 5405 5404 5403 5402 5400 5399 5397 5396 5394 5392 5390 5388 5386 5384 5382 5379 5377 5374 5371 5369 5366 5363 5360 5356 5352 5348 5344 5341 5338 5335 5331 5328 5324 5320 5317 5315 5312 5310 5308 5306 5305 5302 5299 5296 5295 5294 5292 5291 5291 5290 5289 5288 5287 5286 5285 5283 5282 5281 5280 5279 5278 5277 5277 5277 5277 5277 5277 5277 5277 5276 5276 5276 5277 5277 5276 5276 5276 5276 5276 5276 5276 5277 5278 5279
5406 5405 5404 5402 5401 5400 5399 5397 5395 5394 5392 5390 5388 5386 5384 5381 5379 5376 5374 5371 5368 5365 5362 5359 5356 5352 5348 5344 5340 5335 5332 5328 5325 5321 5318 5314 5311 5308 5306 5304 5302 5300 5298 5296 5294 5292 5290 5289 5288 5287 5286 5285 5285 5285 5284 5282 5281 5280 5279 5279 5278 5277 5276 5275 5275 5274 5274 5274 5274 5274 5274 5274 5274 5274 5274 5274 5274 5274 5274 5274 5274 5274 5274 5275 5276 5277
5404 5403 5402 5401 5400 5398 5397 5395 5394 5392 5390 5388 5386 5384 5381 5379 5376 5373 5370 5367 5364 5361 5358 5355 5352 5348 5345 5340 5335 5331 5327 5323 5320 5316 5312 5309 5305 5302 5300 5298 5296 5294 5293 5291 5290 5288 5286 5285 5284 5283 5282 5282 5281 5281 5280 5280 5278 5277 5276 5276 5276 5275 5274 5273 5272 5271 5271 5271 5271 5271 5271 5271 5271 5271 5272 5272 5272 5271 5271 5271 5271 5272 5272 5273 5274 5275
5403 5402 5400 5399 5398 5396 5395 5393 5391 5390 5388 5386 5384 5381 5379 5377 5374 5371 5367 5364 5361 5357 5355 5351 5348 5345 5341 5337 5332 5328 5323 5319 5315 5311 5307 5304 5300 5298 5295 5293 5291 5290 5288 5287 5286 5285 5284 5282 5281 5280 5279 5279 5278 5278 5277 5277 5275 5275 5274 5274 5273 5273 5273 5271 5270 5269 5269 5269 5269 5269 5269 5269 5269 5270 5270 5270 5269 5269 5269 5269 5270 5270 5270 5271 5272 5274
5401 5400 5399 5398 5396 5395 5393 5391 5389 5387 5385 5383 5381 5379 5377 5374 5371 5368 5365 5362 5358 5355 5351 5348 5345 5342 5338 5334 5330 5325 5321 5316 5312 5308 5304 5300 5297 5294 5291 5289 5287 5286 5285 5284 5283 5282 5281 5280 5279 5277 5277 5276 5275 5275 5275 5274 5274 5273 5272 5271 5271 5271 5271 5270 5268 5267 5267 5267 5267 5267 5267 5267 5268 5268 5267 5267 5267 5267 5267 5267 5268 5269 5269 5270 5271 5272
5400 5399 5398 5396 5395 5393 5391 5389 5387 5385 5383 5381 5379 5376 5374 5371 5368 5365 5363 5360 5356 5353 5349 5345 5342 5339 5336 5332 5328 5323 5319 5314 5310 5305 5301 5297 5294 5291 5289 5287 5285 5283 5282 5281 5280 5280 5279 5278 5277 5275 5275 5274 5274 5273 5272 5272 5271 5271 5270 5270 5269 5269 5268 5268 5266 5265 5265 5265 5265 5265 5265 5266 5266 5266 5265 5265 5265 5265 5266 5266 5267 5268 5268 5269 5270 5271
5399 5398 5396 5395 5393 5391 5389 5387 5385 5383 5380 5378 5375 5373 5370 5367 5365 5362 5359 5356 5353 5350 5346 5342 5339 5335 5332 5328 5325 5320 5316 5312 5307 5303 5299 5295 5292 5289 5287 5285 5283 5281 5280 5280 5278 5277 5277 5276 5275 5274 5273 5272 5272 5271 5270 5270 5270 5269 5268 5268 5267 5267 5266 5266 5265 5265 5264 5264 5264 5264 5264 5264 5264 5264 5264 5264 5264 5265 5265 5265 5266 5266 5267 5268 5269 5270
5398 5396 5395 5393 5391 5390 5388 5385 5383 5380 5378 5375 5373 5370 5367 5364 5361 5359 5356 5353 5349 5346 5342 5339 5335 5331 5327 5324 5320 5317 5313 5310 5305 5301 5297 5293 5290 5288 5285 5283 5282 5280 5279 5278 5277 5276 5275 5274 5273 5272 5272 5271 5270 5270 5269 5269 5268 5268 5267 5266 5265 5265 5265 5264 5264 5264 5263 5263 5263 5263 5263 5263 5263 5263 5263 5263 5264 5264 5264 5265 5265 5266 5266 5267 5268 5269
5397 5395 5394 5392 5390 5388 5386 5383 5381 5378 5375 5372 5370 5367 5364 5361 5358 5355 5352 5349 5346 5342 5338 5335 5331 5327 5323 5320 5316 5313 5310 5307 5303 5300 5296 5293 5290 5287 5285 5283 5281 5280 5278 5277 5276 5275 5274 5273 5272 5271 5270 5270 5270 5269 5268 5267 5267 5266 5266 5265 5264 5264 5263 5263 5263 5263 5262 5262 5262 5262 5262 5262 5262 5262 5262 5263 5263 5263 5264 5264 5265 5265 5266 5266 5267 5268
5395 5394 5392 5390 5388 5386 5384 5381 5378 5376 5373 5370 5367 5364 5361 5358 5355 5352 5349 5345 5342 5339 5335 5331 5327 5324 5320 5316 5312 5309 5306 5304 5301 5298 5295 5292 5290 5287 5285 5283 5281 5280 5278 5277 5275 5274 5273 5272 5270 5270 5270 5269 5268 5268 5267 5267 5266 5265 5265 5264 5264 5263 5262 5262 5262 5262 5262 5261 5261 5261 5261 5261 5261 5262 5262 5262 5262 5263 5263 5264 5264 5264 5265 5265 5266 5266
5394 5392 5390 5388 5386 5384 5381 5379 5376 5374 5371 5368 5365 5361 5358 5355 5352 5349 5346 5342 5339 5335 5332 5328 5324 5321 5317 5314 5310 5307 5304 5301 5299 5297 5295 5292 5290 5287 5285 5283 5281 5280 5278 5277 5275 5274 5272 5270 5270 5269 5269 5269 5268 5267 5267 5266 5265 5264 5264 5263 5263 5262 5262 5261 5261 5261 5261 5261 5260 5260 5260 5261 5261 5261 5261 5261 5262 5262 5263 5263 5263 5263 5264 5264 5265 5265
5392 5390 5389 5386 5384 5382 5379 5377 5374 5371 5369 5366 5363 5360 5356 5353 5350 5346 5343 5339 5336 5332 5329 5325 5322 5318 5315 5312 5309 5306 5303 5300 5298 5296 5294 5292 5290 5288 5286 5284 5282 5281 5279 5277 5276 5274 5272 5270 5269 5268 5268 5268 5267 5267 5266 5265 5265 5264 5263 5263 5262 5262 5261 5261 5261 5261 5260 5260 5260 5260 5260 5260 5260 5261 5261 5261 5261 5261 5262 5262 5262 5262 5262 5263 5263 5263
5391 5389 5387 5385 5382 5380 5377 5375 5372 5370 5367 5364 5361 5358 5354 5350 5347 5343 5340 5336 5333 5330 5326 5323 5320 5316 5313 5310 5308 5305 5302 5300 5298 5295 5294 5292 5290 5288 5286 5285 5283 5281 5280 5278 5277 5275 5273 5271 5269 5268 5267 5267 5267 5266 5266 5265 5265 5264 5263 5262 5262 5262 5261 5261 5260 5260 5260 5260 5260 5260 5260 5260 5260 5260 5260 5260 5260 5261 5261 5261 5261 5261 5261 5261 5261 5262
5389 5387 5385 5383 5380 5378 5375 5373 5370 5367 5365 5362 5359 5356 5352 5349 5345 5341 5338 5334 5331 5328 5324 5321 5318 5315 5312 5309 5307 5304 5302 5299 5297 5295 5293 5292 5290 5288 5286 5285 5283 5282 5280 5279 5277 5276 5274 5272 5270 5268 5267 5266 5266 5266 5265 5265 5264 5264 5263 5262 5262 5261 5261 5260 5260 5260 5260 5259 5259 5259 5259 5259 5260 5260 5260 5260 5260 5260 5260 5260 5260 5260 5260 5260 5260 5261